Home   Weather   Monza   Past weeks

Flag for Italy Past Weather in Monza, Italy — Yesterday and Last 2 Weeks

52 °F

Partly cloudy.

Feels Like: 52 °F
Forecast: 50 / 54 °F
Wind: No wind

Location: Milan / Linate

Current Time: Oct 23, 2016 at 1:47:51 AM

Latest Report: Oct 23, 2016 at 12:50 AM

Visibility: N/A

Pressure: 30.04 "Hg

Humidity: 88%

Dew Point: 48 °F

Location of MonzaLocation

Past Weather in Monza — Graph


Monza Temperature Yesterday

Maximum temperature yesterday: 59 °F (at 3:50 PM)
Minimum temperature yesterday: 45 °F (at 5:50 AM)
Average temperature yesterday: 52 °F

High & Low Weather Summary for the Past Weeks

High68 °F (Oct 16, 4:20 PM)100% (Oct 12, 4:50 AM)30.24 "Hg (Oct 12, 4:50 AM)
Low39 °F (Oct 12, 5:50 AM)37% (Oct 12, 4:20 PM)29.80 "Hg (Oct 14, 4:20 PM)
Average54 °F83%30.03 "Hg
* Reported Oct 8 12:20 AM — Oct 23 12:50 AM, Monza, Weather by CustomWeather, © 2016

Note: Actual official high and low records may vary slightly from our data, if they occured in-between our weather recording intervals... More about our weather records


Monza Weather History for the Previous 24 Hours

Scroll right to see more
Time TempWeatherWind HumidityBarometerVisibility
12:50 AM
Sun, Oct 23
52 °FPartly cloudy.No wind88%30.04 "HgN/A
11:50 PM
Sat, Oct 22
52 °FPassing clouds.2 mph82%30.04 "HgN/A
11:20 PM52 °FPassing clouds.2 mph82%30.04 "HgN/A
10:50 PM52 °FPassing clouds.No wind82%30.04 "HgN/A
10:20 PM52 °FPassing clouds.2 mph82%30.04 "HgN/A
9:50 PM52 °FPassing clouds.2 mph82%30.04 "HgN/A
9:20 PM54 °FPassing clouds.3 mph77%30.04 "HgN/A
8:50 PM54 °FPassing clouds.2 mph77%30.04 "HgN/A
8:20 PM54 °FPassing clouds.2 mph77%30.01 "HgN/A
7:50 PM52 °FPassing clouds.No wind82%30.01 "HgN/A
7:20 PM52 °FPassing clouds.2 mph82%30.01 "HgN/A
6:50 PM55 °FClear.2 mph72%30.01 "Hg10 mi
6:20 PM55 °FSunny.5 mph72%29.98 "Hg10 mi
5:50 PM55 °FSunny.5 mph72%29.98 "Hg10 mi
5:20 PM57 °FPassing clouds.5 mph67%29.98 "HgN/A
4:50 PM57 °FPassing clouds.3 mph67%29.98 "HgN/A
4:20 PM57 °FScattered clouds.5 mph67%29.98 "HgN/A
3:50 PM59 °FPartly sunny.5 mph63%29.98 "Hg5 mi
3:20 PM57 °FScattered clouds.5 mph67%29.98 "Hg5 mi
2:50 PM57 °FScattered clouds.5 mph67%30.01 "Hg5 mi
2:20 PM57 °FScattered clouds.6 mph67%30.01 "Hg5 mi
1:50 PM57 °FScattered clouds.6 mph67%30.01 "Hg5 mi
1:20 PM57 °FScattered clouds.3 mph72%30.01 "Hg5 mi
12:50 PM57 °FScattered clouds.5 mph67%30.01 "Hg5 mi
12:20 PM55 °FScattered clouds.5 mph77%30.01 "Hg5 mi
11:50 AM55 °FScattered clouds.2 mph72%30.01 "Hg5 mi
11:20 AM54 °FScattered clouds.3 mph77%30.01 "Hg5 mi
10:50 AM52 °FScattered clouds.5 mph82%30.01 "Hg5 mi
10:20 AM50 °FScattered clouds.5 mph88%30.01 "Hg5 mi
9:50 AM50 °FScattered clouds.8 mph94%30.01 "Hg5 mi
9:20 AM50 °FScattered clouds.5 mph94%30.01 "Hg4 mi
8:50 AM48 °FScattered clouds.3 mph94%30.01 "Hg4 mi
8:20 AM46 °FFog.2 mph100%29.98 "Hg3 mi
7:50 AM48 °FScattered clouds.2 mph100%29.98 "Hg3 mi
7:20 AM46 °FPassing clouds.No wind100%29.98 "HgN/A
6:50 AM46 °FPassing clouds.No wind100%29.98 "HgN/A
6:20 AM46 °FPassing clouds.2 mph100%29.98 "Hg5 mi
5:50 AM45 °FLight fog.5 mph100%29.98 "Hg4 mi
5:20 AM46 °FLight fog.No wind93%29.98 "Hg5 mi
4:50 AM46 °FLight fog.No wind93%29.95 "Hg5 mi
4:20 AM48 °FLight fog.2 mph94%29.95 "Hg5 mi
3:50 AM48 °FLight fog.2 mph94%29.95 "Hg5 mi
3:20 AM48 °FLight fog.2 mph94%29.95 "Hg5 mi
2:50 AM48 °FPassing clouds.No wind94%29.98 "HgN/A
1:50 AM50 °FPassing clouds.2 mph88%29.98 "HgN/A
1:20 AM50 °FPassing clouds.3 mph88%29.98 "HgN/A
Weather by CustomWeather, © 2016

See weather overviewHow to use our weather pages